Moffett NAS, CA

5:38 AM PST on December 11, 2017 (GMT -0800)
Moffett Federal Air Field

Weather History for KNUQ - August, 2014

Change the Weather History Date:

Tuesday, August 26, 2014

  Actual Average Record
Temperature  
Mean Temperature 67 °F 68 °F  
Max Temperature 75 °F 78 °F 94 °F (1993)
Min Temperature 58 °F 59 °F 50 °F (1970)
Degree Days  
Heating Degree Days 0    
Month to date heating degree days 0  
Since 1 June heating degree days 7  
Since 1 July heating degree days 0  
Cooling Degree Days 2    
Month to date cooling degree days 100  
Year to date cooling degree days 416  
Since 1 June cooling degree days 329  
Growing Degree Days 17 (Base 50)    
Moisture  
Dew Point 55 °F    
Average Humidity 67    
Maximum Humidity 84    
Minimum Humidity 50    
Precipitation  
Precipitation 0.00 in 0.00 in 0.03 in (1961)
Month to date precipitation T 0.01  
Year to date precipitation 5.19 9.66  
Since 1 July precipitation T  
Sea Level Pressure  
Sea Level Pressure 29.99 in    
Wind  
Wind Speed 6 mph (North)    
Max Wind Speed 17 mph    
Max Gust Speed 22 mph    
Visibility 10 miles    
Events      
T = Trace of Precipitation, MM = Missing Value Source: NWS Daily Summary

Daily Weather History Graph

Daily Weather History Graph

Search for Another Location

Airport or City:

Trip Planner

Search our weather history database for the weather conditions in past years. The results will help you decide how hot, cold, wet, or windy it might be!

Date:

Astronomy

Aug. 26, 2014 Rise Set
Actual Time 6:33 AM PDT 7:45 PM PDT
Civil Twilight 6:06 AM PDT 8:12 PM PDT
Nautical Twilight 5:34 AM PDT 8:44 PM PDT
Astronomical Twilight 5:00 AM PDT 9:18 PM PDT
Moon 7:36 AM PDT (8/26) 8:12 PM PDT (8/26)
Length of Visible Light 14h 05m
Length of Day
13h 11m
New Moon, 1% of the Moon is Illuminated
Aug 26
New Moon
Sep 2
First Quarter
Sep 8
Full
Sep 15
Last Quarter
Sep 23
New

Hourly Weather History & Observations

Time (PDT) Temp. Dew Point Humidity Pressure Visibility Wind Dir Wind Speed Gust Speed Precip Events Conditions
12:56 AM 62.1 °F 55.0 °F 78% 29.97 in 10.0 mi ENE 3.5 mph - N/A   Clear
1:56 AM 61.0 °F 55.0 °F 81% 29.97 in 10.0 mi Calm Calm - N/A   Clear
2:56 AM 60.1 °F 54.0 °F 80% 29.98 in 10.0 mi Calm Calm - N/A   Clear
3:56 AM 60.1 °F 53.1 °F 78% 29.97 in 10.0 mi SE 3.5 mph - N/A   Clear
4:56 AM 60.1 °F 52.0 °F 75% 29.98 in 10.0 mi Calm Calm - N/A   Clear
5:21 AM 60.8 °F 51.8 °F 72% 29.98 in 10.0 mi South 3.5 mph - N/A   Mostly Cloudy
5:36 AM 59.0 °F 51.8 °F 77% 29.98 in 10.0 mi South 3.5 mph - N/A   Partly Cloudy
5:56 AM 59.0 °F 52.0 °F 78% 30.00 in 10.0 mi Calm Calm - N/A   Clear
6:56 AM 59.0 °F 52.0 °F 78% 30.01 in 10.0 mi Calm Calm - N/A   Clear
7:12 AM 60.8 °F 53.6 °F 77% 30.01 in 10.0 mi South 3.5 mph - N/A   Mostly Cloudy
7:56 AM 63.0 °F 55.0 °F 75% 30.02 in 10.0 mi East 3.5 mph - N/A   Overcast
8:56 AM 64.0 °F 54.0 °F 70% 30.03 in 10.0 mi Calm Calm - N/A   Overcast
9:27 AM 64.4 °F 55.4 °F 73% 30.02 in 10.0 mi Calm Calm - N/A   Scattered Clouds
9:56 AM 66.9 °F 54.0 °F 63% 30.03 in 10.0 mi Calm Calm - N/A   Clear
10:56 AM 69.1 °F 55.0 °F 61% 30.03 in 10.0 mi North 5.8 mph - N/A   Clear
11:56 AM 71.1 °F 55.0 °F 57% 30.02 in 10.0 mi North 8.1 mph - N/A   Clear
12:56 PM 73.0 °F 55.9 °F 55% 30.01 in 10.0 mi North 8.1 mph - N/A   Clear
1:56 PM 73.9 °F 55.9 °F 53% 29.99 in 10.0 mi NNW 12.7 mph - N/A   Clear
2:56 PM 73.9 °F 57.0 °F 55% 29.97 in 10.0 mi NNW 12.7 mph - N/A   Clear
3:56 PM 73.9 °F 57.0 °F 55% 29.96 in 10.0 mi NNW 12.7 mph 18.4 mph N/A   Clear
4:56 PM 75.0 °F 55.9 °F 51% 29.95 in 10.0 mi NNW 16.1 mph - N/A   Clear
5:56 PM 73.9 °F 57.0 °F 55% 29.95 in 10.0 mi NNW 12.7 mph - N/A   Clear
6:56 PM 71.1 °F 57.9 °F 63% 29.96 in 10.0 mi NNW 9.2 mph - N/A   Clear
7:56 PM 69.1 °F 57.9 °F 68% 29.97 in 10.0 mi NNW 10.4 mph - N/A   Clear
8:56 PM 66.9 °F 57.9 °F 73% 30.00 in 10.0 mi North 10.4 mph - N/A   Clear
9:56 PM 66.0 °F 57.9 °F 75% 30.01 in 10.0 mi North 9.2 mph - N/A   Clear
10:56 PM 64.9 °F 57.9 °F 78% 30.02 in 10.0 mi NNE 3.5 mph - N/A   Clear
11:56 PM 64.0 °F 57.0 °F 78% 30.02 in 10.0 mi ENE 3.5 mph - N/A   Clear